Cheektowaga, NY

6:55 AM EST on February 09, 2016 (GMT -0500)
Buffalo Niagara International

Weather History for KBUF - December, 2014

Change the Weather History Date:

Tuesday, December 30, 2014

  Actual Average Record
Temperature  
Mean Temperature 24 °F 26 °F  
Max Temperature 28 °F 33 °F 58 °F (1884)
Min Temperature 20 °F 20 °F -9 °F (1880)
Degree Days  
Heating Degree Days 41 39  
Month to date heating degree days 922 1044  
Since 1 July heating degree days 2220 2377  
Cooling Degree Days 0 0  
Month to date cooling degree days 0 0  
Year to date cooling degree days 516 544  
Moisture  
Dew Point 10 °F    
Average Humidity 55    
Maximum Humidity 68    
Minimum Humidity 42    
Precipitation  
Precipitation T in 0.13 in 1.52 in (1990)
Month to date precipitation 2.12 3.77  
Year to date precipitation 42.37 40.36  
Snow  
Snow T in 1.10 in 17.80 in (1961)
Month to date snowfall 9.9 26.4  
Since 1 July snowfall 30.4 35.2  
Snow Depth 0.00 in    
Sea Level Pressure  
Sea Level Pressure 30.41 in    
Wind  
Wind Speed 11 mph (WNW)    
Max Wind Speed 22 mph    
Max Gust Speed 28 mph    
Visibility 10 miles    
Events Snow    
T = Trace of Precipitation, MM = Missing Value Source: NWS Daily Summary

Daily Weather History Graph

Daily Weather History Graph

Search for Another Location

Airport or City:

Trip Planner

Search our weather history database for the weather conditions in past years. The results will help you decide how hot, cold, wet, or windy it might be!

Date:

Astronomy

Dec. 30, 2014 Rise Set
Actual Time 7:45 AM EST 4:49 PM EST
Civil Twilight 7:13 AM EST 5:21 PM EST
Nautical Twilight 6:37 AM EST 5:57 PM EST
Astronomical Twilight 6:03 AM EST 6:31 PM EST
Moon 1:05 PM EST (12/30) 2:00 AM EST (12/30)
Length of Visible Light 10h 08m
Length of Day
9h 03m
Waxing Gibbous, 71% of the Moon is Illuminated
Dec 30
Waxing Gibbous
Jan 4
Full
Jan 13
Last Quarter
Jan 20
New
Jan 26
First Quarter

Hourly Weather History & Observations

Time (EST) Temp. Windchill Dew Point Humidity Pressure Visibility Wind Dir Wind Speed Gust Speed Precip Events Conditions
12:54 AM 24.8 °F 17.9 °F 10.4 °F 54% 30.33 in 10.0 mi WNW 5.8 mph - N/A   Scattered Clouds
1:54 AM 25.0 °F 17.1 °F 10.0 °F 53% 30.38 in 10.0 mi WNW 6.9 mph - N/A   Mostly Cloudy
2:54 AM 25.0 °F 17.1 °F 10.9 °F 55% 30.40 in 10.0 mi West 6.9 mph - 0.00 in   Mostly Cloudy
3:54 AM 25.0 °F 15.5 °F 14.0 °F 63% 30.40 in 9.0 mi West 9.2 mph - 0.00 in Snow Light Snow
4:54 AM 25.0 °F 17.1 °F 12.9 °F 60% 30.40 in 10.0 mi NW 6.9 mph - 0.00 in   Mostly Cloudy
5:54 AM 25.0 °F 16.3 °F 10.0 °F 53% 30.40 in 10.0 mi NNW 8.1 mph - N/A   Mostly Cloudy
6:54 AM 24.1 °F 15.2 °F 10.0 °F 55% 30.42 in 10.0 mi NNW 8.1 mph - N/A   Mostly Cloudy
7:54 AM 21.9 °F 11.7 °F 16.0 °F 78% 30.45 in 9.0 mi North 9.2 mph - 0.00 in Snow Light Snow
8:54 AM 24.1 °F 17.0 °F 16.0 °F 71% 30.47 in 5.0 mi North 5.8 mph - 0.00 in Snow Light Snow
9:54 AM 25.0 °F 20.7 °F 16.0 °F 69% 30.48 in 10.0 mi SW 3.5 mph - 0.00 in   Mostly Cloudy
10:54 AM 27.0 °F 17.3 °F 10.9 °F 51% 30.47 in 10.0 mi West 10.4 mph - N/A   Scattered Clouds
11:54 AM 27.0 °F 18.0 °F 7.0 °F 43% 30.44 in 10.0 mi WNW 9.2 mph - N/A   Scattered Clouds
12:54 PM 27.0 °F 18.7 °F 8.1 °F 45% 30.41 in 10.0 mi West 8.1 mph - N/A   Scattered Clouds
1:54 PM 26.1 °F 15.6 °F 7.0 °F 44% 30.40 in 10.0 mi West 11.5 mph - N/A   Mostly Cloudy
2:54 PM 26.1 °F 14.5 °F 9.0 °F 49% 30.40 in 10.0 mi West 13.8 mph 20.7 mph N/A   Mostly Cloudy
3:54 PM 26.1 °F 15.6 °F 10.0 °F 51% 30.40 in 10.0 mi West 11.5 mph - 0.00 in Snow Light Snow
4:54 PM 25.0 °F 17.1 °F 10.9 °F 55% 30.38 in 9.0 mi West 6.9 mph - 0.00 in   Mostly Cloudy
5:54 PM 25.0 °F 14.2 °F 12.0 °F 58% 30.39 in 10.0 mi West 11.5 mph - N/A   Overcast
6:54 PM 23.0 °F 9.6 °F 9.0 °F 55% 30.42 in 10.0 mi WNW 16.1 mph 21.9 mph N/A   Mostly Cloudy
7:54 PM 21.9 °F 7.3 °F 6.1 °F 51% 30.42 in 10.0 mi West 18.4 mph 27.6 mph N/A   Mostly Cloudy
8:54 PM 21.0 °F 6.2 °F 6.1 °F 53% 30.42 in 10.0 mi West 18.4 mph 27.6 mph N/A   Mostly Cloudy
9:54 PM 19.9 °F 4.3 °F 5.0 °F 52% 30.41 in 10.0 mi West 19.6 mph 25.3 mph N/A   Scattered Clouds
10:54 PM 19.9 °F 4.3 °F 5.0 °F 52% 30.40 in 10.0 mi West 19.6 mph - N/A   Scattered Clouds
11:54 PM 19.9 °F 6.2 °F 3.0 °F 48% 30.38 in 10.0 mi West 15.0 mph 23.0 mph N/A   Scattered Clouds